Tracking 33446 objects as of 10-Mar-2026
HD Live streaming from Space Station
objects crossing your sky now

SDA_1684

Track SDA_1684 now!
10-day predictions


NORAD ID: 65994
Int'l Code: 2025-230W
Perigee: 952.8 km
Apogee: 957.3 km
Inclination: 81.3 °
Period: 104.0 minutes
Semi major axis: 7326 km
RCS: Unknown
Launch date: October 15, 2025
Source: United States (US)
Launch site: AIR FORCE WESTERN TEST RANGE (AFWTR)
Your satellite tracking list
Your tracking list is empty




NASA's NSSDC Master Catalog

Two Line Element Set (TLE):
1 65994U 25230W   26069.16299107 -.00028522  00000-0 -25557-1 0  9999
2 65994  81.3001 303.5708 0003061  70.4101 289.7386 13.84521141 20103
Source of the keplerian elements: AFSPC